Springfield, MO

10:55 AM CDT on May 25, 2017 (GMT -0500)
Springfield-Branson Regional

Weather History for KSGF - November, 2010

Change the Weather History Date:

Saturday, November 13, 2010

  Actual Average Record
Temperature  
Mean Temperature 39 °F 47 °F  
Max Temperature 46 °F 58 °F 81 °F (1999)
Min Temperature 32 °F 37 °F 5 °F (1986)
Degree Days  
Heating Degree Days 26 18  
Month to date heating degree days 179 197  
Since 1 July heating degree days 417 505  
Cooling Degree Days 0 0  
Month to date cooling degree days 0 0  
Year to date cooling degree days 1734 1387  
Moisture  
Dew Point 36 °F    
Average Humidity 80    
Maximum Humidity 100    
Minimum Humidity 60    
Precipitation  
Precipitation T in 0.15 in 1.38 in (1993)
Month to date precipitation 1.15 1.85  
Year to date precipitation 42.33 40.16  
Snow  
Snow 0.00 in - - ()
Month to date snowfall 0.0  
Since 1 July snowfall 0.0  
Since 1 September snowfall 0.0  
Snow Depth 0.00 in    
Sea Level Pressure  
Sea Level Pressure 30.12 in    
Wind  
Wind Speed 9 mph (West)    
Max Wind Speed 22 mph    
Max Gust Speed 26 mph    
Visibility 9 miles    
Events Rain    
T = Trace of Precipitation, MM = Missing Value Source: NWS Daily Summary

Daily Weather History Graph

Daily Weather History Graph

Search for Another Location

Airport or City:

Trip Planner

Search our weather history database for the weather conditions in past years. The results will help you decide how hot, cold, wet, or windy it might be!

Date:

Astronomy

Nov. 13, 2010 Rise Set
Actual Time 6:50 AM CST 5:04 PM CST
Civil Twilight 6:22 AM CST 5:32 PM CST
Nautical Twilight 5:51 AM CST 6:03 PM CST
Astronomical Twilight 5:20 AM CST 6:34 PM CST
Moon 12:49 PM CST (11/13) No Moon Set
Length of Visible Light 11h 09m
Length of Day
10h 14m
Waxing Crescent, 51% of the Moon is Illuminated
Nov 13
Waxing Crescent
Nov 21
Full
Nov 28
Last Quarter
Dec 5
New
Dec 13
First Quarter

Hourly Weather History & Observations

Time (CST) Temp. Windchill Dew Point Humidity Pressure Visibility Wind Dir Wind Speed Gust Speed Precip Events Conditions
12:08 AM 44.6 °F 38.8 °F 42.8 °F 93% 30.05 in 10.0 mi West 11.5 mph - N/A   Overcast
12:19 AM 44.6 °F 39.2 °F 42.8 °F 93% 30.05 in 10.0 mi WSW 10.4 mph - N/A   Overcast
12:52 AM 43.0 °F 35.7 °F 43.0 °F 100% 30.06 in 10.0 mi West 15.0 mph - N/A   Overcast
1:52 AM 42.1 °F 34.5 °F 42.1 °F 100% 30.07 in 5.0 mi WSW 15.0 mph - N/A   Overcast
2:52 AM 39.2 °F 30.2 °F 39.2 °F 100% 30.09 in 8.0 mi West 17.3 mph 23.0 mph N/A   Overcast
3:11 AM 39.2 °F 30.5 °F 39.2 °F 100% 30.10 in 5.0 mi West 16.1 mph 23.0 mph N/A Rain Light Rain
3:40 AM 39.2 °F 30.5 °F 39.2 °F 100% 30.11 in 7.0 mi West 16.1 mph 21.9 mph 0.00 in   Overcast
3:52 AM 39.0 °F 31.4 °F 39.0 °F 100% 30.11 in 5.0 mi West 12.7 mph 20.7 mph 0.00 in   Overcast
4:12 AM 39.2 °F 31.2 °F 37.4 °F 93% 30.11 in 4.0 mi West 13.8 mph 21.9 mph N/A   Overcast
4:52 AM 37.9 °F 29.6 °F 37.0 °F 97% 30.13 in 10.0 mi WNW 13.8 mph 25.3 mph 0.00 in   Overcast
5:52 AM 37.4 °F 30.3 °F 35.6 °F 93% 30.12 in 10.0 mi West 10.4 mph - N/A   Overcast
6:33 AM 37.4 °F 29.3 °F 35.6 °F 93% 30.13 in 10.0 mi West 12.7 mph - N/A   Overcast
6:52 AM 37.9 °F 30.0 °F 36.0 °F 93% 30.14 in 10.0 mi West 12.7 mph - N/A   Overcast
7:52 AM 39.0 °F 31.4 °F 36.0 °F 89% 30.14 in 10.0 mi West 12.7 mph - N/A   Overcast
8:52 AM 39.0 °F 33.4 °F 36.0 °F 89% 30.16 in 10.0 mi WNW 8.1 mph 16.1 mph N/A   Overcast
9:45 AM 39.2 °F 32.0 °F 35.6 °F 87% 30.16 in 10.0 mi West 11.5 mph - N/A   Overcast
9:52 AM 39.9 °F 32.9 °F 35.1 °F 83% 30.17 in 10.0 mi West 11.5 mph 19.6 mph N/A   Overcast
10:52 AM 41.0 °F 33.9 °F 35.1 °F 79% 30.17 in 10.0 mi West 12.7 mph - N/A   Overcast
11:52 AM 41.0 °F 32.8 °F 35.1 °F 79% 30.16 in 10.0 mi West 16.1 mph 23.0 mph N/A   Overcast
12:52 PM 41.0 °F 34.3 °F 35.1 °F 79% 30.14 in 10.0 mi West 11.5 mph - N/A   Overcast
1:52 PM 43.0 °F 37.2 °F 36.0 °F 76% 30.12 in 10.0 mi West 10.4 mph - N/A   Overcast
2:52 PM 44.1 °F 38.6 °F 35.1 °F 71% 30.11 in 10.0 mi West 10.4 mph - N/A   Overcast
3:38 PM 44.6 °F 39.2 °F 35.6 °F 71% 30.09 in 10.0 mi West 10.4 mph - N/A   Overcast
3:48 PM 44.6 °F 39.7 °F 35.6 °F 71% 30.09 in 10.0 mi WNW 9.2 mph - N/A   Mostly Cloudy
3:52 PM 46.0 °F 41.9 °F 34.0 °F 63% 30.10 in 10.0 mi NW 8.1 mph - N/A   Mostly Cloudy
4:52 PM 43.0 °F - 34.0 °F 71% 30.10 in 10.0 mi Calm Calm - N/A   Clear
5:52 PM 37.0 °F - 33.1 °F 86% 30.12 in 10.0 mi Calm Calm - N/A   Clear
6:52 PM 35.1 °F - 30.9 °F 85% 30.12 in 10.0 mi Calm Calm - N/A   Clear
7:52 PM 33.1 °F 27.7 °F 30.9 °F 92% 30.12 in 10.0 mi SW 5.8 mph - N/A   Clear
8:52 PM 35.1 °F 31.0 °F 30.9 °F 85% 30.13 in 10.0 mi SW 4.6 mph - N/A   Clear
9:52 PM 34.0 °F 29.8 °F 30.0 °F 85% 30.13 in 10.0 mi SW 4.6 mph - N/A   Clear
10:52 PM 33.1 °F 30.0 °F 28.9 °F 85% 30.12 in 10.0 mi SSW 3.5 mph - N/A   Clear
11:52 PM 32.0 °F - 28.9 °F 88% 30.11 in 10.0 mi Calm Calm - N/A   Clear